Погода в Ленинске-Кузнецком

Россия / Кемеровская область (Кузбасс)     54°39′48″N   86°09′44″E
темп.,
°C
ветер,
м/с
пор.,
м/с
влажн.,
%
обл.,
%
осадки,
мм/ч
давл.,
гПа
погр.,
м
19 мая, ср
ср1901:00+10ссв3484100 0.1 100685
04:00+10ссв3586100 0.0 1005164
07:00+9ссв5990100 0.6 1005425
10:00+9ссв5884100 1.1 1005554
13:00+13ссв5853100 1.2 10051764
16:00+15ссв673698 0.0 10062290
19:00+12ссв674814 0.0 10071627
22:00+8с6124899 0.0 1010503
20 мая, чт
чт2001:00+6с51048100 0.0 1011485
04:00+4с51056100 0.0 1010385
07:00+3с59570 0.0 1012388
10:00+7с674031 0.0 10122072
13:00+8ссз6737100 0.0 10132715
16:00+8с673997 0.6 10142203
19:00+7ссв674561 0.6 10161798
22:00+3сз226530 0.5 101843
21 мая, пт
пт2101:00+1ссз397936 0.6 1020237
04:000ссз3597100 0.0 1021251
07:00+3ссз238462 0.0 1023430
10:00+7с3565100 0.0 10241136
13:00+10ссв2447100 0.1 10241767
16:00+13зсз3434100 0.0 10232253
19:00+13зсз4540100 0.0 10242158
22:00+8сз2255100 0.0 102614
22 мая, сб
сб2201:00+6зсз2257100 0.0 102720
04:00+5зюз2261100 0.0 102821
07:00+7юз2562100 0.0 1029167
10:00+11зюз3548100 0.0 1028797
13:00+14з4637100 0.0 10272269
16:00+14зсз564186 0.0 10261944
19:00+13сз565144 0.0 10261056
22:00+10з2557100 0.0 1027153
23 мая, вс
вс2301:00+10ююз365797 0.0 1027175
04:00+9ююз3759100 0.0 1027204
07:00+10ююз3758100 0.0 1027229
10:00+12ююз5751100 0.0 1027404
13:00+17ююз564488 0.0 1026925
16:00+21юз45435 0.0 10241518
19:00+20ююз46505 0.0 1022721
22:00+14ююз48714 0.0 1022127